Regional Weather Roundup
Issued by NWS Grand Forks, ND

Home | Current Version | Previous Version | Text Only | Print | Product List | Glossary Off
Versions: 1 2 3 4 5 6 7 8 9 10 11 12 13 14 15 16 17 18 19 20 21 22 23 24 25 26 27 28 29 30 31 32 33 34 35 36 37 38 39 40 41 42 43 44 45 46 47 48 49 50

000
ASUS43 KFGF 031431
RWRFGF
PRAIRIE TO PINES  WEATHER ROUNDUP
NATIONAL WEATHER SERVICE EASTERN NORTH DAKOTA/GRAND FORKS ND
800 AM CST SAT DEC 03 2016

 **SATELLITE DATA USED TO AUGMENT SKY COVER AT AUTOMATED STATIONS**
 *****  WEATHER ACROSS EASTERN NORTH DAKOTA  *****

CITY           SKY/WX    TMP DP  RH WIND       PRES   REMARKS
GRAND FORKS    CLOUDY    27  20  75 S12       30.17F WCI  17
GRAND FRKS AFB CLOUDY    27  21  80 S12       30.16F WCI  16
GRAND FRKS NWS   N/A     27 N/A N/A S13         N/A  WCI  16
DEVILS LAKE    FLURRIES  27  25  93 S16       30.05F WCI  14
FARGO          CLOUDY    27  20  75 S10       30.21F WCI  17
WAHPETON ARPT  CLOUDY    27  19  74 SE9       30.23F WCI  17
$$

 ***** WEATHER ACROSS CENTRAL AND WESTERN NORTH DAKOTA  *****

CITY           SKY/WX    TMP DP  RH WIND       PRES   REMARKS
BISMARCK       FOG       25  24  96 SE9       30.00F VSB 1/2 WCI  15
MINOT          CLEAR     24  20  84 S8        29.91F WCI  15
JAMESTOWN      CLOUDY    27  25  92 S14       30.09F WCI  16
MINOT AFB      CLEAR     21  19  89 SE8       29.90F WCI  12
GARRISON         N/A     24  22  91 S14       29.93F WCI  12
WILLISTON      CLOUDY    20  15  81 S5        29.84F WCI  13
DICKINSON      CLEAR     15  12  88 S10       29.86F WCI   2
HETTINGER      CLEAR     17  15  92 SE8       29.91F WCI   7
$$

 *****  OTHER AIRPORT OBSERVATIONS IN OUR AREA  *****

CITY           SKY/WX    TMP DP  RH WIND       PRES   REMARKS
WALHALLA         N/A     27  27 100 S12G18    30.10S WCI  16
GRAFTON AIRPOR CLOUDY    27  23  86 S16       30.16F WCI  14
VALLEY CITY AR CLOUDY    27  27 100 S10       30.14F WCI  17
CANDO          CLOUDY    27  27 100 S20       30.05F WCI  13
CAVALIER APRT    N/A     27  25  93 S15       30.12S WCI  15
GWINNER        CLOUDY    30  27  86 SE12      30.16F WCI  21
SHEYENNE NWR     N/A     26  20  79 S9        29.95S WCI  17
ROLLA          CLOUDY    25  25 100 S12G18    30.00F WCI  14
 ***** THE ABOVE OBSERVATIONS ARE NON NWS ARE NOT QUALITY
       CONTROLLED AND MAY MIS-REPORT RAIN FOR SNOW...
$$

  *****  WEATHER ACROSS NORTHERN MINNESOTA  *****

CITY           SKY/WX    TMP DP  RH WIND       PRES   REMARKS
FLAG ISLAND    CLOUDY    28  21  74 S12       30.17F WCI  18
WARROAD        CLOUDY    27  21  80 S7        30.19F WCI  19
ROSEAU         CLOUDY    27  21  80 S14       30.18S WCI  15
HALLOCK        CLOUDY    27  23  86 S18G25    30.15F WCI  13
THF RVR FALLS  NOT AVBL
BAUDETTE       CLOUDY    26  20  77 S5        30.20F WCI  20
WASKISH        CLOUDY    25  19  80 S6        30.22S WCI  18
CROOKSTON      CLOUDY    27  21  80 S15       30.20F WCI  15
STEPHEN NDAWN    N/A     27  21  80 S15         N/A  WCI  15
GREENBUSH NDAW   N/A     25  21  86 S12         N/A  WCI  14
$$
  *****  WEATHER ACROSS CENTRAL AND WEST MINNESOTA  *****

CITY           SKY/WX    TMP DP  RH WIND       PRES   REMARKS
FOSSTON        CLOUDY    21  18  86 S12       30.20F WCI   9
BEMIDJI        CLOUDY    23  18  82 S8        30.21S WCI  14
PARK RAPIDS    CLOUDY    24  15  68 S9        30.22R WCI  14
ELBOW LAKE     CLOUDY    25  19  80 CALM      30.24F
WADENA         CLOUDY    23  18  80 S6        30.23S WCI  16
DETROIT LAKES  CLOUDY    25  21  86 SW12      30.22S WCI  14
MOORHEAD       CLOUDY    27  19  74 S10       30.22F WCI  17
FERGUS FALLS   CLOUDY    25  18  74 S12       30.27F WCI  14
MORRIS MN      PTCLDY    25  19  80 SE6       30.23F WCI  18
STAPLES        CLOUDY    23  18  80 S8        30.24S WCI  14
$$
  *****  WEATHER ELSEWHERE ACROSS MINNESOTA  *****

CITY           SKY/WX    TMP DP  RH WIND       PRES   REMARKS
DULUTH         CLOUDY    26  23  88 W6        30.24S WCI  19
INTRNTL FALLS  CLOUDY    24  19  81 CALM      30.23S
ELY            CLOUDY    23  21  93 CALM      30.24R FOG
CLOQUET        CLOUDY    27  21  80 CALM      30.25S
WHEATON        NOT AVBL
BRAINERD       CLOUDY    25  19  78 SW9       30.26S WCI  15
HIBBING        CLOUDY    23  19  85 S3        30.23F
ALEXANDRIA     CLOUDY    24  18  77 SW9       30.25S WCI  14
SAINT CLOUD    CLOUDY    27  21  78 W6        30.28S WCI  20
MINNEAPOLIS    CLOUDY    29  20  69 SW3       30.30F
$$

  *****  WEATHER ACROSS SOUTH DAKOTA  *****

CITY           SKY/WX    TMP DP  RH WIND       PRES   REMARKS
SIOUX FALLS    PTCLDY    27  26  96 SE6       30.21F WCI  20
BROOKINGS      CLEAR     23  21  92 SE8       30.18F WCI  14
WATERTOWN      CLEAR     23  21  92 SE8       30.16F WCI  14
HURON          MOCLDY    25  24  96 SE10      30.15F WCI  15
SISSETON         N/A     25  19  78 S9        30.20F WCI  15
ABERDEEN       CLEAR     23  20  88 SE8       30.14F WCI  14
MITCHELL       CLOUDY    26  25  96 S9        30.17F WCI  17
PIERRE         CLOUDY    25  22  88 SE13      30.04F WCI  14
MOBRIDGE         N/A     25  21  85 SE13      29.99F WCI  14
RAPID CITY     CLEAR     16  13  88 CALM      29.90F
$$

  *****  SOME WEATHER IN NEARBY STATES *****

CITY           SKY/WX    TMP DP  RH WIND       PRES   REMARKS
GLASGOW MT     CLOUDY    29  27  92 S12       29.75F WCI  19
GREAT FALLS MT CLEAR     27  20  75 SW15      29.82S WCI  15
CHEYENNE WY    CLOUDY    19   5  54 SW13      29.96S WCI   6
SCOTTSBLUFF NE CLEAR     13   9  84 CALM      30.02S
OMAHA NE       MOCLDY    25  21  85 CALM      30.29S FOG
DES MOINES IA  MOCLDY    36  28  73 S5        30.31F
DAVENPORT IA   CLOUDY    32  24  72 N5        30.36F
CHICAGO IL     CLOUDY    32  22  66 W9        30.35S WCI  24
EAU CLAIRE WI  CLOUDY    29  24  82 SW6       30.30S WCI  23
LA CROSSE WI   CLOUDY    32  22  66 SW3       30.32F
$$

  *****  SOME NATIONAL WEATHER *****

CITY           SKY/WX    TMP DP  RH WIND       PRES   REMARKS
LA GUARDIA NY  PTSUNNY   44  28  53 NW29G37   30.01S
RALEIGH NC     MOSUNNY   43  28  55 VRB6      30.29R
ATLANTA GA     PTSUNNY   44  34  67 NW6       30.27R
NEW ORLEANS LA CLOUDY    58  48  69 E13G22    30.13R
OKLAHOMA CITY  LGT RAIN  45  43  93 NE6       30.16F
ALBUQUERQUE NM FLURRIES  32  30  92 NW7       30.09S
SALT LAKE CITY MOCLDY    28  19  69 E6        30.28R WCI  22
LOS ANGELES CA CLEAR     47  22  37 CALM      30.11R
BOISE ID       CLOUDY    34  25  69 E5        30.24R
SEATTLE WA     MOCLDY    45  42  89 S10       30.25S
$$

*** WEATHER ACROSS MANITOBA...SASKATCHEWAN AND ONTARIO ***
                ***ONTARIO***

CITY           SKY/WX    TMP DP  RH WIND       PRES   REMARKS
GERALDTON      FLURRIES  21  19  93 N3        30.22S
THUNDER BAY    MOCLDY    27  27 100 SW2       30.27R
SIOUX LOOKOUT  FRZ DRZL  21  18  86 S7        30.20S WCI  13
TORONTO        MOSUNNY   37  30  75 W12       30.16R
BIG TROUT LK   LGT SNOW   9   7  92 SW7       30.25  WCI  -3
PICKLE LAKE    FLURRIES  18  16  93 SE3       30.21S
DRYDEN         CLOUDY    19  18  93 S7        30.20S WCI  10
KENORA         CLOUDY    21  21 100 SE3       30.17S
$$
                *** MANITOBA***

CITY           SKY/WX    TMP DP  RH WIND       PRES   REMARKS
BRANDON        CLOUDY    27  23  86 SE7       29.95F WCI  19
DAUPHIN        PTCLDY    23  21  93 E8        29.92F WCI  14
ISLAND LAKE    NOT AVBL
PILOT MOUND      N/A     27  25  93 S20         N/A  WCI  13
THE PAS        FLURRIES  28  25  86 SE13      29.90F WCI  18
THOMPSON       FLURRIES  16  14  93 E5        30.06F WCI   9
WINNIPEG       FLURRIES  28  23  80 S17G24    30.12S WCI  16
LYNN LAKE      CLOUDY    21  21 100 SE12      29.90F WCI   9
CHURCHILL      PTCLDY     0  -4  85 SW9       30.12S WCI -16
GILLAM         LGT SNOW   9   5  85 S8        30.15F WCI  -4
$$
                ***SASKATCHEWAN***

CITY           SKY/WX    TMP DP  RH WIND       PRES   REMARKS
ESTEVAN        MOCLDY    19  16  86 S12       29.80F WCI   7
KINDERSLEY     CLOUDY    18  18 100 N8        29.65R WCI   7
LLOYDMINSTER   CLOUDY    21  21 100 W5        29.67S FOG     WCI  15
PRINCE ALBERT  CLOUDY    27  23  86 SE9       29.72F WCI  17
REGINA         FLURRIES  19  18  93 SE13      29.71F WCI   7
YORKTON        CLOUDY    27  25  93 SE13G21   29.79F FOG     WCI  16
N. BATTLEFORD  CLOUDY    25  25 100 VRB2      29.70R
LA RONGE       FLURRIES  28  23  80 SE14      29.77F WCI  17
SASKATOON      CLOUDY    23  21  93 E6        29.67F WCI  16
SWIFT CURRENT  CLOUDY    32  27  80 W13       29.61R WCI  22
$$
NOTE: THESE ARE AUTOMATED STATIONS WITH LIMITED QUALITY CONTROL
      "FAIR" INDICATES FEW OR NO CLOUDS BELOW 12,000 FEET WITH NO
      SIGNIFICANT WEATHER AND/OR OBSTRUCTIONS TO VISIBILITY.
      SKY/WX - SKY CONDITION AND SIGNIFICANT WEATHER.
      TMP - AIR TEMPERATURE.    DP   - DEWPOINT TEMPERATURE.
      RH  - RELATIVE HUMIDITY.  PRES - PRESSURE.
      HX  - HEAT INDEX.         WCI  - WIND CHILL INDEX.
$




USA.gov is the U.S. government's official web portal to all federal, state and local government web resources and services.